Effective Sunday, March 17, 2024, the National Weather Service National Data Buoy Center will discontinue its Dial-A-Buoy Interactive Voice Response system. For more information, see Service Change Notice 24-06 (PDF).

Station LUIT2 - 8771972 - San Luis Pass, TX Image indicating link to RSS feed of recent meteorological observations for station LUIT2


Conditions at LUIT2 as of
(1:48 pm CST)
1948 GMT on 02/26/2024:
     

Click on the graph icon in the table below to see a time series plot of the last five days of that observation.

5-day plot - Wind Direction Wind Direction (WDIR):SSW ( 200 deg true )
5-day plot - Wind Speed Wind Speed (WSPD): 8.9 kts
5-day plot - Wind Gust Wind Gust (GST): 15.0 kts
5-day plot - Atmospheric Pressure Atmospheric Pressure (PRES):29.96 in
5-day plot - Air Temperature Air Temperature (ATMP): 69.6 °F
5-day plot - Water Temperature Water Temperature (WTMP): 65.5 °F
5-day plot - Wind Speed at 10 Meters Wind Speed at 10 meters (WSPD10M): 9.7 kts
5-day plot - Wind Speed at 20 Meters Wind Speed at 20 meters (WSPD20M): 9.7 kts
5-day plot -  Wind Speed, Wind Gust and Atmospheric Pressure Combined plot of Wind Speed, Gust, and Air Pressure
Previous observations
TIME
(CST)
5-day plot - Wind Direction
WDIR
 
5-day plot - Wind Speed
WSPD
kts
5-day plot - Wind Gust
GST
kts
5-day plot - Wave Height
WVHT
ft
5-day plot - Dominant Wave Period
DPD
sec
5-day plot - Average Wave Period
APD
sec
5-day plot - Mean Wave Direction
MWD
 
5-day plot - Atmospheric Pressure
PRES
in
5-day plot - Pressure Tendency
PTDY
in
5-day plot - Air Temperature
ATMP
°F
5-day plot - Water Temperature
WTMP
°F
5-day plot - Dew Point
DEWP
°F
5-day plot - Salinity
SAL
psu
5-day plot - Visibility
VIS
nmi
5-day plot - Tide (above MLLW)
TIDE
ft
2024-02-26 01:42 pmSSW 9.9 14.0----29.96- 70.0 65.7----
2024-02-26 01:36 pmSSW 9.9 13.0----29.96- 70.2 65.7----
2024-02-26 01:30 pmSSW 9.9 14.0----29.97- 69.3 65.7----
2024-02-26 01:24 pmSSW 8.9 14.0----29.97- 69.8 65.7----
2024-02-26 01:18 pmSSW 9.9 15.0----29.98- 69.3 65.7----
2024-02-26 01:12 pmSSW 8.9 13.0----29.98- 69.1 65.5----
2024-02-26 01:06 pm S 12.0 15.9----29.98- 68.9 65.5----
2024-02-26 01:00 pm S 9.9 15.0----29.98-0.06 68.7 65.3----
2024-02-26 12:54 pm S 9.9 15.0----29.99- 68.9 65.3----
2024-02-26 12:48 pmSSW 9.9 14.0----29.99- 69.1 65.1----
2024-02-26 12:42 pm S 8.9 13.0----29.99- 68.7 65.1----
2024-02-26 12:36 pm S 9.9 13.0----30.00- 68.7 64.9----
2024-02-26 12:30 pm S 9.9 13.0----30.00- 68.9 64.8----
2024-02-26 12:24 pmSSW 8.9 14.0----30.01- 68.7 64.8----
2024-02-26 12:18 pm S 8.0 13.0----30.01- 68.9 64.6----
2024-02-26 12:12 pmSSW 7.0 12.0----30.01- 68.7 64.6----
2024-02-26 12:06 pmSSW 8.0 13.0----30.01- 68.7 64.6----
2024-02-26 12:00 pm S 11.1 13.0----30.01-0.02 68.2 64.6----
2024-02-26 11:54 amSSW 8.9 13.0----30.01- 68.4 64.4----
2024-02-26 11:48 amSSW 8.9 13.0----30.01- 68.5 64.4----
2024-02-26 11:42 am S 11.1 15.0----30.01- 68.4 64.4----
2024-02-26 11:36 am S 9.9 13.0----30.02- 68.4 64.2----
2024-02-26 11:30 am S 8.0 12.0----30.02- 68.7 64.0----
2024-02-26 11:24 am S 8.9 15.9----30.02- 68.4 64.0----
2024-02-26 11:18 am S 9.9 15.0----30.02- 68.2 64.0----
2024-02-26 11:12 am S 9.9 13.0----30.02- 68.4 63.9----
2024-02-26 11:06 am S 7.0 12.0----30.03- 68.9 63.9----
2024-02-26 11:00 am S 8.0 14.0----30.03+0.01 68.5 63.7----
2024-02-26 10:54 am S 12.0 15.0----30.03- 67.6 63.7----
2024-02-26 10:48 am S 8.9 13.0----30.03- 68.0 63.5----
2024-02-26 10:42 amSSW 9.9 15.0----30.03- 67.8 63.5----
2024-02-26 10:36 am S 9.9 13.0----30.03- 67.8 63.5----
2024-02-26 10:30 am S 8.0 13.0----30.03- 68.0 63.5----
2024-02-26 10:24 am S 8.0 14.0----30.03- 67.8 63.3----
2024-02-26 10:18 am S 9.9 14.0----30.03- 67.6 63.3----
2024-02-26 10:12 amSSW 9.9 13.0----30.03- 67.8 63.3----
2024-02-26 10:06 am S 8.9 12.0----30.03- 67.8 63.3----
2024-02-26 10:00 amSSW 8.0 13.0----30.04+0.03 67.6 63.3----
2024-02-26 09:54 am S 8.0 13.0----30.04- 67.6 63.1----
2024-02-26 09:48 am S 7.0 12.0----30.04- 67.6 63.1----
2024-02-26 09:42 am S 8.9 12.0----30.04- 67.3 63.1----
2024-02-26 09:36 amSSW 6.0 8.9----30.04- 67.5 63.0----
2024-02-26 09:30 am S 8.0 12.0----30.04- 66.9 63.0----
2024-02-26 09:24 am S 7.0 11.1----30.03- 67.1 63.0----
2024-02-26 09:18 am S 8.9 12.0----30.03- 66.9 62.8----
2024-02-26 09:12 am S 8.9 12.0----30.03- 66.7 62.8----
2024-02-26 09:06 amSSW 7.0 9.9----30.03- 66.7 62.6----
2024-02-26 09:00 am S 6.0 9.9----30.03+0.04 66.4 62.6----
2024-02-26 08:54 am S 6.0 8.9----30.03- 66.2 62.4----
2024-02-26 08:48 amSSW 6.0 8.9----30.03- 66.2 62.4----
2024-02-26 08:42 amSSW 6.0 9.9----30.03- 66.0 62.2----
2024-02-26 08:36 am S 7.0 8.9----30.03- 66.0 62.1----
2024-02-26 08:30 amSSW 5.1 8.9----30.03- 66.0 62.1----
2024-02-26 08:24 amSSW 5.1 8.0----30.03- 65.8 61.9----
2024-02-26 08:18 amSSW 6.0 8.0----30.02- 65.7 61.9----
2024-02-26 08:12 amSSW 6.0 8.0----30.02- 65.5 61.9----
2024-02-26 08:06 amSSW 5.1 7.0----30.02- 65.5 61.9----
2024-02-26 08:00 am S 4.1 8.0----30.02+0.04 65.5 61.9----
2024-02-26 07:54 am S 5.1 7.0----30.02- 65.3 61.9----
2024-02-26 07:48 amSSW 4.1 8.9----30.01- 65.5 61.9----
2024-02-26 07:42 am S 6.0 8.0----30.01- 65.5 62.1----
2024-02-26 07:36 am S 5.1 7.0----30.01- 65.3 62.4----
2024-02-26 07:30 amSSW 5.1 8.9----30.01- 65.3 62.4----
2024-02-26 07:24 amSSW 5.1 8.0----30.01- 65.3 62.1----
2024-02-26 07:18 amSSW 5.1 8.9----30.01- 65.3 62.6----
2024-02-26 07:12 am S 6.0 8.9----30.01- 65.3 63.0----
2024-02-26 07:06 am S 7.0 8.9----30.01- 65.1 63.3----
2024-02-26 07:00 am S 6.0 8.9----30.01+0.02 64.9 63.3----
2024-02-26 06:54 am S 7.0 9.9----30.00- 64.8 63.5----
2024-02-26 06:48 am S 6.0 9.9----30.00- 64.8 63.7----
2024-02-26 06:42 amSSW 6.0 11.1----30.00- 64.8 63.7----
2024-02-26 06:36 am S 7.0 11.1----30.00- 64.8 63.7----
2024-02-26 06:30 am S 7.0 9.9----30.00- 64.8 63.5----
2024-02-26 06:24 am S 7.0 9.9----30.00- 64.8 63.3----
2024-02-26 06:18 am S 7.0 9.9----30.00- 64.8 63.7----
2024-02-26 06:12 am S 7.0 9.9----30.00- 64.8 63.3----
2024-02-26 06:06 am S 7.0 9.9----29.99- 64.9 63.1----
2024-02-26 06:00 am S 5.1 9.9----29.99+0.00 64.8 62.8----
2024-02-26 05:54 am S 7.0 9.9----29.99- 64.9 62.6----
2024-02-26 05:48 am S 8.0 9.9----29.99- 64.9 61.9----
2024-02-26 05:42 am S 7.0 8.9----29.99- 64.9 61.9----
2024-02-26 05:36 am S 6.0 8.9----29.99- 64.8 61.9----
2024-02-26 05:30 am S 6.0 9.9----29.99- 64.8 62.1----
2024-02-26 05:24 am S 7.0 9.9----29.99- 64.9 62.1----
2024-02-26 05:18 am S 7.0 11.1----29.98- 64.9 62.1----
2024-02-26 05:12 am S 7.0 9.9----29.98- 64.9 62.1----
2024-02-26 05:06 am S 7.0 11.1----29.98- 64.9 62.1----
2024-02-26 05:00 am S 8.0 11.1----29.98-0.03 64.9 62.2----
2024-02-26 04:54 am S 7.0 11.1----29.98- 64.9 62.2----
2024-02-26 04:48 am S 8.0 11.1----29.98- 64.9 62.4----
2024-02-26 04:42 am S 8.0 9.9----29.98- 64.9 62.4----
2024-02-26 04:36 am S 8.9 12.0----29.98- 64.9 62.4----
2024-02-26 04:30 am S 8.0 13.0----29.98- 64.9 62.4----
2024-02-26 04:24 am S 8.9 12.0----29.98- 64.9 62.4----
2024-02-26 04:18 am S 8.0 12.0----29.98- 64.9 62.4----
2024-02-26 04:12 am S 8.0 12.0----29.98- 64.9 62.4----
2024-02-26 04:06 am S 8.9 12.0----29.98- 64.9 62.4----
2024-02-26 04:00 am S 8.0 14.0----29.98-0.03 64.9 62.4----
2024-02-26 03:54 am S 8.9 12.0----29.98- 64.9 62.6----
2024-02-26 03:48 am S 8.0 12.0----29.98- 64.9 62.6----
2024-02-26 03:42 am S 8.0 13.0----29.98- 64.9 62.8----
2024-02-26 03:36 am S 8.9 12.0----29.98- 65.1 63.3----
2024-02-26 03:30 am S 8.9 12.0----29.99- 65.1 63.5----
2024-02-26 03:24 am S 8.9 12.0----29.99- 65.1 63.7----
2024-02-26 03:18 am S 8.9 12.0----30.00- 65.1 63.7----
2024-02-26 03:12 am S 8.9 12.0----30.00- 65.1 63.7----
2024-02-26 03:06 am S 7.0 12.0----30.00- 64.9 64.0----
2024-02-26 03:00 am S 8.9 11.1----30.00-0.03 65.1 64.2----
2024-02-26 02:54 am S 7.0 11.1----30.00- 65.1 64.0----
2024-02-26 02:48 am S 7.0 12.0----30.00- 65.1 63.3----
2024-02-26 02:42 am S 8.0 11.1----30.01- 65.3 63.1----
2024-02-26 02:36 am S 8.0 11.1----30.01- 65.3 63.3----
2024-02-26 02:30 am S 8.0 12.0----30.01- 65.3 63.7----
2024-02-26 02:24 am S 8.0 11.1----30.01- 65.1 63.7----
2024-02-26 02:18 am S 8.0 11.1----30.01- 65.1 63.9----
2024-02-26 02:12 am S 8.0 9.9----30.01- 65.1 63.7----
2024-02-26 02:06 am S 8.0 11.1----30.01- 65.1 63.5----
2024-02-26 02:00 am S 7.0 9.9----30.01-0.02 65.1 63.5----
2024-02-26 01:54 am S 7.0 9.9----30.01- 65.1 63.5----
2024-02-26 01:48 am S 7.0 9.9----30.02- 65.1 63.5----
2024-02-26 01:42 am S 6.0 8.9----30.02- 65.1 63.5----
2024-02-26 01:36 am S 7.0 11.1----30.02- 65.3 63.3----
2024-02-26 01:30 am S 7.0 9.9----30.02- 65.1 63.1----
2024-02-26 01:24 am S 6.0 8.9----30.01- 65.1 63.0----
2024-02-26 01:18 am S 7.0 11.1----30.01- 65.1 63.0----
2024-02-26 01:12 am S 8.0 9.9----30.01- 65.1 63.0----
2024-02-26 01:06 am S 7.0 9.9----30.02- 65.1 62.8----
2024-02-26 01:00 am S 7.0 9.9----30.01-0.02 65.1 62.8----
2024-02-26 12:54 am S 7.0 11.1----30.01- 65.1 62.8----
2024-02-26 12:48 am S 6.0 11.1----30.01- 65.1 62.8----
2024-02-26 12:42 am S 7.0 11.1----30.02- 65.3 62.8----
2024-02-26 12:36 am S 8.0 9.9----30.02- 65.3 62.8----
2024-02-26 12:30 am S 6.0 11.1----30.02- 65.1 62.8----
2024-02-26 12:24 am S 8.0 11.1----30.02- 65.3 62.8----
2024-02-26 12:18 am S 7.0 11.1----30.02- 65.3 62.8----
2024-02-26 12:12 am S 8.0 11.1----30.03- 65.3 62.8----
2024-02-26 12:06 am S 8.9 12.0----30.02- 65.3 62.8----
2024-02-26 12:00 am S 8.0 12.0----30.03+0.00 65.3 62.6----
2024-02-25 11:54 pm S 8.9 12.0----30.03- 65.7 62.6----
2024-02-25 11:48 pm S 8.0 12.0----30.03- 65.7 62.6----
2024-02-25 11:42 pm S 8.9 12.0----30.03- 65.5 62.6----
2024-02-25 11:36 pm S 8.0 11.1----30.03- 65.5 62.6----
2024-02-25 11:30 pm S 8.0 11.1----30.03- 65.5 62.6----
2024-02-25 11:24 pm S 8.9 11.1----30.03- 65.7 62.6----
2024-02-25 11:18 pm S 8.0 11.1----30.03- 65.5 62.6----
2024-02-25 11:12 pm S 8.9 11.1----30.03- 65.5 62.6----
2024-02-25 11:06 pm S 8.9 12.0----30.03- 65.5 62.6----
2024-02-25 11:00 pm S 8.0 11.1----30.03+0.01 65.3 62.6----
2024-02-25 10:54 pm S 8.0 9.9----30.03- 65.3 62.6----
2024-02-25 10:48 pm S 8.0 11.1----30.03- 65.5 62.6----
2024-02-25 10:42 pm S 8.0 11.1----30.03- 65.5 62.6----
2024-02-25 10:36 pm S 8.0 11.1----30.03- 65.5 62.6----
2024-02-25 10:30 pm S 8.9 12.0----30.03- 65.7 62.6----
2024-02-25 10:24 pm S 8.9 12.0----30.03- 65.5 62.6----
2024-02-25 10:18 pm S 8.0 13.0----30.03- 65.5 62.6----
2024-02-25 10:12 pm S 8.0 11.1----30.04- 65.3 62.6----
2024-02-25 10:06 pm S 8.0 12.0----30.03- 65.3 62.6----
2024-02-25 10:00 pm S 8.0 11.1----30.03+0.02 65.3 62.8----
2024-02-25 09:54 pm S 8.0 9.9----30.03- 65.1 62.6----
2024-02-25 09:48 pm S 7.0 11.1----30.03- 64.9 62.6----
2024-02-25 09:42 pm S 6.0 9.9----30.03- 64.9 62.6----
2024-02-25 09:36 pm S 6.0 8.9----30.03- 65.1 62.8----
2024-02-25 09:30 pm S 7.0 9.9----30.03- 65.1 62.8----
2024-02-25 09:24 pm S 7.0 9.9----30.03- 65.1 62.8----
2024-02-25 09:18 pm S 7.0 9.9----30.03- 65.1 62.8----
2024-02-25 09:12 pm S 7.0 9.9----30.03- 65.1 62.8----
2024-02-25 09:06 pm S 6.0 8.9----30.03- 64.9 62.8----
2024-02-25 09:00 pm S 7.0 11.1----30.03- 64.9 62.8----
2024-02-25 08:54 pm S 7.0 9.9----30.03- 64.9 62.8----
2024-02-25 08:48 pm S 7.0 9.9----30.03- 64.9-----
2024-02-25 08:42 pmSSE 8.0 11.1----30.03- 64.9-----
2024-02-25 08:36 pm S 8.0 11.1----30.02- 64.9-----
2024-02-25 08:30 pm S 8.0 9.9----30.02- 65.1 63.0----
2024-02-25 08:24 pm S 7.0 11.1----30.02- 64.9 63.0----
2024-02-25 08:18 pm S 7.0 8.9----30.02- 64.8 63.0----
2024-02-25 08:12 pm S 5.1 8.9----30.03- 64.6 63.1----
2024-02-25 08:06 pm S 7.0 9.9----30.02- 64.8 63.0----
2024-02-25 08:00 pm S 7.0 9.9----30.02+0.02 64.9 63.0----
2024-02-25 07:54 pm S 7.0 8.9----30.02- 64.9 63.3----
2024-02-25 07:48 pm S 7.0 8.9----30.02- 64.9 63.7----
2024-02-25 07:42 pm S 7.0 9.9----30.02- 64.9 63.9----
2024-02-25 07:36 pm S 7.0 9.9----30.02- 65.1 63.9----
2024-02-25 07:30 pm S 8.0 11.1----30.01- 65.1 63.9----
2024-02-25 07:24 pm S 7.0 8.9----30.01- 65.1 63.9----
2024-02-25 07:18 pm S 6.0 9.9----30.01- 65.1 63.9----
2024-02-25 07:12 pm S 7.0 8.9----30.01- 65.1 64.0----
2024-02-25 07:06 pm S 7.0 9.9----30.01- 65.1 64.0----
2024-02-25 07:00 pm S 7.0 8.9----30.01+0.00- 64.0----
2024-02-25 06:54 pm S 7.0 11.1----30.01-- 64.0----
2024-02-25 06:48 pm S 7.0 9.9----30.01- 65.1 64.2----
2024-02-25 06:42 pm S 8.0 9.9----30.01- 65.1 64.2----
2024-02-25 06:36 pm S 6.0 8.9----30.01- 65.1 64.2----
2024-02-25 06:30 pm S 7.0 9.9----30.01- 65.3 64.2----
2024-02-25 06:24 pm S 8.0 11.1----30.01- 65.5 64.2----
2024-02-25 06:18 pm S 7.0 9.9----30.01-- 64.4----
2024-02-25 06:12 pm S 7.0 9.9----30.01-- 64.4----
2024-02-25 06:06 pm S 7.0 12.0----30.01-- 64.4----
2024-02-25 06:00 pm S 6.0 9.9------- 64.4----
2024-02-25 05:54 pm S 7.0 12.0------- 64.4----
2024-02-25 05:48 pm S 8.9 11.1----30.01- 66.6 64.4----
2024-02-25 05:42 pm S 8.9 12.0----30.01- 66.6 64.4----
2024-02-25 05:36 pm S 8.0 12.0----30.01- 66.7 64.4----
2024-02-25 05:30 pmSSE 8.9 12.0----30.01- 66.7 64.4----
2024-02-25 05:24 pm S 8.9 12.0----30.01- 66.7 64.4----
2024-02-25 05:00 pmSSE 8.9 13.0----30.01- 67.3 64.4----
2024-02-25 04:54 pm S 8.0 12.0----30.01- 67.3 64.6----
2024-02-25 04:48 pmSSE 8.9 12.0----30.01- 67.5 64.6----
2024-02-25 04:42 pmSSE 8.0 14.0----30.01- 67.6 64.6----
2024-02-25 04:36 pmSSE 9.9 13.0----30.01- 67.5 64.6----
2024-02-25 04:30 pmSSE 8.9 13.0----30.01- 67.8 64.6----
2024-02-25 04:24 pmSSE 9.9 14.0----30.01- 67.8 64.6----
2024-02-25 04:18 pmSSE 9.9 14.0----30.01- 67.8 64.8----
2024-02-25 04:12 pmSSE 11.1 14.0----30.01- 68.0 64.8----
2024-02-25 04:06 pmSSE 9.9 15.9----30.02- 68.2 64.8----
2024-02-25 04:00 pmSSE 11.1 14.0----30.02-0.06 68.2 64.9----
2024-02-25 03:54 pmSSE 8.9 15.0----30.02- 68.5 65.1----
2024-02-25 03:48 pmSSE 8.9 15.0----30.02-- 65.3----
2024-02-25 03:42 pm S 9.9 13.0----30.02-- 65.8----
2024-02-25 03:36 pm S 8.9 13.0----30.03-- 66.0----
2024-02-25 03:30 pm-------30.03-- 66.2----
2024-02-25 03:24 pm-------30.03-- 66.0----
2024-02-25 03:18 pm S 8.0 14.0----30.03- 68.9 66.6----
2024-02-25 03:12 pm S 8.9 13.0----30.03- 68.9 65.5----
2024-02-25 03:06 pmSSE 8.9 12.0----30.03- 68.7 65.5----
2024-02-25 03:00 pm S 8.9 15.0----30.04-0.08- 65.7----
2024-02-25 02:54 pm S 8.0 12.0----30.04-- 65.1----
2024-02-25 02:48 pmSSE 9.9 14.0----30.04- 67.8 64.4----
2024-02-25 02:42 pmSSE 11.1 14.0----30.04- 67.6 64.2----
2024-02-25 02:36 pmSSE 9.9 12.0----30.04- 67.6 64.4----
2024-02-25 02:30 pm S 8.9 14.0----30.05- 67.8 64.4----
2024-02-25 02:24 pm S 8.9 13.0----30.05- 68.4 64.2----
2024-02-25 02:18 pmSSE 8.9 13.0----30.05-- 64.2----
2024-02-25 02:12 pmSSE 9.9 14.0----30.05-- 64.4----
2024-02-25 02:06 pmSSE 9.9 14.0----30.06-- 64.6----
2024-02-25 02:00 pm S 8.9 13.0------- 64.8----
2024-02-25 01:54 pm S 8.9 14.0------- 65.1----